Simultaneous Nadir Overpasses (SNOs) Predictions

Prediction of SNOs between AQUA and METOP-C Satellite Orbit:

Table of predicted SNOs for the next 14.0 days since TLE Epoch: 7/3/2021
Index Date (AQUA) Time (AQUA) Lat,Lon (AQUA) SZA (AQUA ) Date (METOP-C) Time (METOP-C) Lat,Lon (METOP-C) SZA (METOP-C ) Distance(km) Time Diff (sec)
1 07/05/2021 12:25:14 73.75, -11.95 51.07 07/05/2021 12:24:35 73.73, -11.90 51.05 3.00 39
2 07/05/2021 13:14:40 -73.78, 155.64 128.91 07/05/2021 13:15:16 -73.80, 155.59 128.89 2.87 36
3 07/08/2021 07:59:29 73.72, 54.55 51.34 07/08/2021 07:58:55 73.74, 54.53 51.36 1.69 34
4 07/08/2021 08:48:56 -73.80,-137.98 128.58 07/08/2021 08:49:36 -73.81,-137.98 128.57 0.93 40
5 07/11/2021 03:33:46 73.75, 120.91 51.73 07/11/2021 03:33:16 73.75, 120.95 51.72 1.57 30
6 07/11/2021 04:23:13 -73.83, -71.61 128.19 07/11/2021 04:23:57 -73.81, -71.56 128.21 2.23 44
7 07/13/2021 23:08:02 73.74,-172.62 52.12 07/13/2021 23:07:37 73.75,-172.62 52.14 1.56 25
8 07/13/2021 23:57:29 -73.81, -5.14 127.80 07/13/2021 23:58:18 -73.82, -5.15 127.81 0.62 49
9 07/16/2021 17:52:38 -73.13, 87.45 128.10 07/16/2021 17:51:31 -73.09, 84.96 128.01 80.72 67
10 07/16/2021 18:42:17 73.73,-106.17 52.56 07/16/2021 18:41:57 73.76,-106.20 52.59 3.25 20
11 07/16/2021 19:31:44 -73.80, 61.32 127.36 07/16/2021 19:32:38 -73.82, 61.27 127.35 2.44 54



Historial Predications of SNOs between AQUA and METOP-C
